Regional Weather Roundup
Issued by NWS Spokane, WA

Home | Current Version | Previous Version | Text Only | Print | Product List | Glossary On
Versions: 1 2 3 4 5 6 7 8 9 10 11 12 13 14 15 16 17 18 19 20 21 22 23 24 25 26 27 28 29 30 31 32 33 34 35 36 37 38 39 40 41 42 43 44 45 46 47 48 49 50
000
NZUS01 KOTX 281910
RWROTX
EASTERN WASHINGTON/NORTHERN IDAHO ROUNDUP
NATIONAL WEATHER SERVICE, SPOKANE WA
1200 PM PDT FRI AUG 28 2015

Note: "fair" indicated few or no clouds below 12,000 feet with no
significant weather and/or obstructions to visibility.

...NORTHEAST WASHINGTON AND NORTHERN IDAHO PANHANDLE...

CITY           SKY/WX    TMP DP  RH WIND       PRES   REMARKS
SPOKANE INTL   CLOUDY    75  42  30 SW10      30.00R
SPOKANE DOWNTO CLOUDY    78  42  27 SW9       29.99R
COEUR D ALENE  CLOUDY    75  45  33 S9        30.00R
DEER PARK      CLOUDY    74  45  35 S8        30.00R
SANDPOINT      CLOUDY    73  46  38 S6        29.97S
BONNERS FERRY  FAIR      72  46  40 CALM      29.95F

...SOUTHEAST WASHINGTON AND SOUTHERN IDAHO PANHANDLE...

CITY           SKY/WX    TMP DP  RH WIND       PRES   REMARKS
WALLA WALLA    CLOUDY    82  45  27 SW6       29.97F
PULLMAN/MOSCOW CLOUDY    75  43  31 W12       30.04R
LEWISTON       CLOUDY    78  44  29 CALM      29.97F HAZE
LOWELL           N/A     70  53  54 CALM      29.99R

...COLUMBIA BASIN...

CITY           SKY/WX    TMP DP  RH WIND       PRES   REMARKS
EPHRATA        CLOUDY    78  51  38 S10       29.91F
MOSES LAKE     CLOUDY    76  54  46 SE8       29.92F
TRI CITIES     CLOUDY    80  50  34 S6        29.93R
HERMISTON      CLOUDY    79  50  36 W7        29.94S
PENDLETON      CLOUDY    79  44  28 SE6       29.97F

...EAST SLOPES CASCADES...

CITY           SKY/WX    TMP DP  RH WIND       PRES   REMARKS
THE DALLES     CLOUDY    76  53  44 NW5       29.91F
YAKIMA         CLOUDY    78  54  43 NE7       29.91F
ELLENSBURG     CLOUDY    73  49  42 S7        29.94S
WENATCHEE      CLOUDY    77  49  37 W7        29.91F
OMAK           CLOUDY    80  47  31 S14       29.88F

...SOUTHERN BRITISH COLUMBIA...

CITY           SKY/WX    TMP DP  RH WIND       PRES   REMARKS
PENTICTON      PTSUNNY   72  50  46 N6        29.85F
CASTLEGAR      LGT RAIN  64  52  63 S3        29.96F SMOKE
CRANBROOK      CLOUDY    72  45  37 VRB2      29.95S SMOKE

...WESTERN MONTANA...

CITY           SKY/WX    TMP DP  RH WIND       PRES   REMARKS
MISSOULA       CLOUDY    73  42  32 S3        30.01F HAZE

...NEIGHBORING CITIES...

CITY           SKY/WX    TMP DP  RH WIND       PRES   REMARKS
SEATTLE        PTSUNNY   68  55  63 SW3       29.97S
CALGARY        CLOUDY    73  48  40 SW6       29.88F SMOKE



USA.gov is the U.S. government's official web portal to all federal, state and local government web resources and services.